sat.trackr.live / text

‹ back to catalog

ONEWEB-0367

NORAD 49293 · 2021-090Q

PAYLOAD ACTIVE UNKNOWN

§ Identity

Operator
Country
UK
Launch date
2021-10-14
Launch site
VOSTO
Launch vehicle
Mass (kg)
RCS (m²)

Purposes: comms

External: N2YO · Heavens-Above · Gunter

§ Orbital elements

Epoch: 2026-09-08T22:48:14.656896Z

Period
109.03 min
Inclination
87.9135°
Eccentricity
0.0001981
Mean motion
13.20772644 rev/d
Perigee alt
1,180.3 km
Apogee alt
1,183.3 km
Semi-major
7,559.9 km
B*
1.1827e-4
RAAN
257.7342°
Arg perigee
84.6923°
Mean anomaly
275.4436°
Rev number
24,088

§ Raw data

ONEWEB-03671 49293U 21090Q   26251.95016964  .00000061  00000+0  11827-3 0  99932 49293  87.9135 257.7342 0001981  84.6923 275.4436 13.20772644240882

JSON: /api/v1/satellites/49293 · /tle

For live sub-satellite position, see the globe view (requires WebGL).

§ Visibility from observer

Set your observer location to see the next 7 days of passes ≥ 10°. The values pass through the URL so the page stays shareable.

No JS? Fill the form by hand. The geolocation button needs JavaScript.